CDT,Max TemperatureF,Mean TemperatureF,Min TemperatureF,Max Dew PointF,MeanDew PointF,Min DewpointF,Max Humidity, Mean Humidity, Min Humidity, Max Sea Level PressureIn, Mean Sea Level PressureIn, Min Sea Level PressureIn, Max VisibilityMiles, Mean VisibilityMiles, Min VisibilityMiles, Max Wind SpeedMPH, Mean Wind SpeedMPH, Max Gust SpeedMPH,PrecipitationIn, CloudCover, Events, WindDirDegrees
2013-3-1,38,36,33,35,33,32,99,94,85,30.11,30.07,30.03,10,5,1,14,9,,0.00,8,Rain-Snow,319
2013-3-2,34,32,29,32,27,21,97,82,66,30.19,30.15,30.10,10,9,2,16,12,21,0.00,8,Rain-Snow,321
2013-3-3,39,31,23,30,23,18,92,69,49,30.19,30.14,30.09,10,10,10,10,6,,0.00,3,,304
2013-3-4,49,42,34,36,31,26,84,65,53,30.12,29.97,29.82,10,10,10,24,10,30,0.00,6,Rain-Snow,108
2013-3-5,48,40,33,44,35,26,98,83,62,29.99,29.85,29.76,10,8,0,32,12,41,0.04,8,Rain-Snow,282
2013-3-6,36,34,32,29,28,26,83,78,71,30.35,30.24,29.99,10,10,10,28,18,38,0.00,8,,317
2013-3-7,42,36,31,31,28,26,94,78,64,30.43,30.39,30.35,10,10,10,7,3,,0.00,6,,37
2013-3-8,53,40,28,38,31,27,96,73,41,30.48,30.38,30.28,10,8,3,10,4,16,0.00,0,,84
2013-3-9,60,50,39,41,36,33,79,61,45,30.27,30.10,29.93,10,10,10,18,10,22,0.00,2,,130
2013-3-10,67,59,51,55,46,39,97,68,46,29.92,29.81,29.71,10,9,3,30,15,38,0.50,4,Rain,158
2013-3-11,54,46,37,53,40,31,96,86,76,30.00,29.82,29.69,10,10,3,20,11,23,0.03,8,Rain,246
2013-3-12,49,40,32,32,30,27,88,66,42,30.17,30.07,29.99,10,10,7,17,9,25,0.00,2,,267
2013-3-13,39,34,28,29,24,20,88,67,52,30.42,30.32,30.16,10,10,4,21,12,29,0.00,5,Snow,296
2013-3-14,42,34,25,34,29,24,96,82,55,30.41,30.32,30.16,10,10,10,15,5,,0.00,3,Rain,157
2013-3-15,68,50,32,52,41,31,99,74,48,30.15,29.93,29.70,10,8,3,20,6,28,0.00,1,,159
2013-3-16,66,52,39,50,44,36,89,71,55,30.04,29.85,29.67,10,8,3,22,16,31,0.00,3,Thunderstorm,297
2013-3-17,41,38,34,39,37,34,99,94,84,30.09,29.99,29.84,10,6,2,21,12,26,2.05,7,Rain-Snow-Thunderstorm,40
2013-3-18,48,43,38,44,41,35,99,89,74,29.94,29.77,29.64,10,8,2,25,12,31,0.95,6,Rain-Thunderstorm,241
2013-3-19,48,40,31,33,26,19,89,60,33,30.20,30.14,29.97,10,10,10,20,10,26,0.00,1,,280
2013-3-20,37,32,27,31,23,16,92,67,49,30.22,30.16,30.11,10,10,10,22,10,30,0.00,2,,292
2013-3-21,36,30,23,25,18,14,75,63,47,30.13,30.07,30.01,10,10,10,13,6,17,0.00,1,,351
2013-3-22,41,36,30,31,24,20,78,63,44,30.07,30.04,30.01,10,10,10,12,5,,0.00,6,,83
2013-3-23,56,46,36,38,31,24,75,56,37,30.04,29.95,29.79,10,10,10,16,6,20,0.00,6,Rain,45
2013-3-24,44,40,34,38,36,32,97,90,65,29.81,29.59,29.45,10,6,2,23,13,32,0.23,8,Rain-Snow-Thunderstorm,1
2013-3-25,38,35,32,33,32,31,96,91,77,30.13,29.91,29.67,10,5,1,24,19,33,0.00,7,Rain-Snow,288
2013-3-26,42,36,31,33,30,26,92,77,57,30.35,30.25,30.13,10,10,7,16,11,24,0.00,7,Snow,295
2013-3-27,47,36,26,35,28,24,94,70,45,30.40,30.36,30.32,10,10,7,10,5,,0.03,0,,292
2013-3-28,56,43,31,39,31,25,91,63,34,30.41,30.34,30.28,10,10,7,7,2,,0.00,2,,76
2013-3-29,55,48,39,47,43,36,99,82,65,30.29,30.25,30.21,10,8,0,12,5,,0.01,7,Fog-Rain,123
2013-3-30,59,48,36,48,44,36,100,86,57,30.22,30.10,29.93,10,5,0,15,4,17,0.15,6,Fog-Rain,151
2013-3-31,66,56,48,50,47,41,97,78,42,29.94,29.88,29.85,10,6,2,18,4,23,0.00,4,,262